Location: Bouchavesnes-Bergen
(49.9859°N, 2.9203°E)
Time: 23:33:37
(UTC+00:00)

NOSS 0 Rocket - Pass Details

Date: 09 March 2021
Orbit: 936 x 954 km, 70.0° (Epoch: 13 April)

Event Time Altitude Azimuth Distance (km) Brightness Sun altitude
Rises 05:14:40 0° 326° (NW) 3,612 6.7 -10.5°
Reaches altitude 10° 05:17:16 10° 321° (NW) 2,665 6.0 -10.1°
Maximum altitude 05:23:10 48° 249° (WSW) 1,213 4.2 -9.1°
Drops below altitude 10° 05:29:03 10° 177° (S) 2,660 6.3 -8.2°
Sets 05:31:39 0° 171° (S) 3,604 7.1 -7.7°
